Regional Weather Roundup
Issued by NWS

Home | Current Version | Previous Version | Text Only | Print | Product List | Glossary Off
Versions: 1 2 3 4 5 6 7 8 9 10 11 12 13 14 15 16 17 18 19 20 21 22 23 24 25 26 27 28 29 30 31 32 33 34 35 36 37 38 39 40 41 42 43 44 45 46 47 48 49 50

237
ASUS43 KDMX 220106
RWRIA

WEATHER ROUNDUP FOR IOWA
NATIONAL WEATHER SERVICE DES MOINES IA
800 PM CDT FRI JUL 21 2017

NOTE: "FAIR" INDICATES FEW OR NO CLOUDS BELOW 12,000 FEET WITH NO
SIGNIFICANT WEATHER AND/OR OBSTRUCTIONS TO VISIBILITY.

* - THESE STATIONS ARE NOT NWS STATIONS...THUS NOT UNDER NWS
QUALITY CONTROL.  THEY ALSO DO NOT REPORT WEATHER SUCH
AS PRECIPITATION OR FOG.

IAZ001>003-012>014-020>022-031>034-043>046-220200-
   NORTHWEST IOWA

CITY           SKY/WX    TMP DP  RH WIND       PRES   REMARKS
CARROLL *      CLEAR     84  82  94 E5        29.74F HX 101
CHEROKEE *     MOCLDY    80  76  89 SE3       29.77R HX  84
DENISON *      CLEAR     88  81  79 S5        29.74F HX 105
ORANGE CITY *  CLEAR     82  77  83 SE3       29.77S HX  91
SHELDON *      CLEAR     81  75  83 SE5       29.76F HX  86
SIOUX CITY     CLEAR     88  80  77 E8        29.73R HX 104
SPENCER        CLEAR     79  73  82 E7        29.76F HX  82
STORM LAKE *   PTCLDY    77  75  94 E8        29.77F
$$

IAZ055>058-069>071-079>083-090>094-220200-
   SOUTHWEST IOWA

CITY           SKY/WX    TMP DP  RH WIND       PRES   REMARKS
ATLANTIC *     CLEAR     91  79  66 S9        29.73F HX 107
AUDUBON *      CLEAR     90  81  74 S8        29.75F HX 108
CLARINDA *     CLEAR     90  79  70 S9        29.76F HX 105
COUNCIL BLFS * CLEAR     91  77  62 S9        29.72F HX 105
CRESTON *      CLEAR     90  77  66 S12G18    29.78F HX 102
HARLAN  *      CLEAR     90  82  79 S6        29.76S HX 111
LAMONI         CLEAR     90  78  68 S9        29.79F HX 104
RED OAK *      CLEAR     90  81  74 S8        29.73F HX 108
SHENANDOAH *   CLEAR     90  81  74 S9        29.73F HX 108
$$

IAZ047>049-059>061-072>074-084-220200-
   CENTRAL IOWA

CITY           SKY/WX    TMP DP  RH WIND       PRES   REMARKS
AMES           CLOUDY    81  79  94 SE6       29.74F HX  90
ANKENY *       CLOUDY    91  75  59 S6        29.74F HX 102
BOONE *        CLOUDY    81  79  94 SE8       29.74F HX  89
CHARITON *     CLEAR     91  77  62 S10G18    29.78F HX 105
DES MOINES     PTCLDY    93  75  55 S9        29.73F HX 104
GRINNELL*      CLOUDY    82  78  89 SE5       29.76F HX  90
MARSHALLTOWN   CLOUDY    79  77  94 E8        29.74F HX  83
NEWTON *       CLOUDY    86  81  84 SE6       29.75F HX 102
PELLA *        CLOUDY    91  75  58 S6        29.77F HX 101
$$

IAZ004>006-015-016-023>025-035-036-220200-
   NORTH CENTRAL IOWA

CITY           SKY/WX    TMP DP  RH WIND       PRES   REMARKS
ALGONA *       PTCLDY    77  75  94 SE6       29.77F
CLARION *      CLOUDY    75  75 100 E8        29.77F
ESTHERVILLE    CLEAR     76  73  91 SE5       29.76F
FORT DODGE *   CLOUDY    79  73  83 E8        29.76F HX  82
MASON CITY     CLOUDY    73  70  90 SE8       29.80F
FOREST CITY *    N/A     73  72  94 SE7       29.79F
WEBSTER CITY * CLOUDY    79  75  89 E7        29.74F HX  82
IOWA FALLS *   CLOUDY    76  73  90 E8        29.79F
$$

IAZ007>011-017>019-026>030-037>042-050>054-066-220200-
   NORTHEAST IOWA

CITY           SKY/WX    TMP DP  RH WIND       PRES   REMARKS
CEDAR RAPIDS   CLOUDY    75  72  90 S7        29.76F
CHARLES CITY * CLOUDY    73  73 100 E7        29.81S
CLINTON *      TSTM      73  72  96 E7        29.82F
DECORAH *      CLOUDY    70  68  94 SE7G14    29.82R
DUBUQUE        CLOUDY    72  70  93 NE8       29.86R
MONTICELLO *   CLOUDY    73  72  94 E9        29.83R
OELWEIN *      CLOUDY    73  72  94 E10G17    29.81S
WATERLOO       PTCLDY    74  69  85 E7        29.77F
$$

IAZ064-065-067-068-078-220200-
   EAST CENTRAL IOWA

CITY           SKY/WX    TMP DP  RH WIND       PRES   REMARKS
DAVENPORT      CLOUDY    75  69  81 S8        29.81F
IOWA CITY      CLOUDY    78  75  90 S7        29.77F HX  81
MT. PLEASANT * CLOUDY    88  70  55 S10       29.79F HX  93
MUSCATINE *    CLOUDY    81  73  78 S7        29.78F HX  85
QUAD CITIES    TSTM      74  71  91 S9        29.79F
$$

IAZ062-063-075>077-085>089-095>099-220200-
   SOUTHEAST IOWA

CITY           SKY/WX    TMP DP  RH WIND       PRES   REMARKS
BURLINGTON     CLOUDY    88  77  69 S8        29.81F HX 100
FAIRFIELD *    CLOUDY    90  73  58 SW12      29.78F HX  98
FORT MADISON * PTCLDY    90  75  62 S7        29.82F HX 100
KEOKUK *       CLEAR     91  73  55 S9        29.81F HX 100
OSKALOOSA *      N/A     89  76  64 S9        29.78F HX 100
CENTERVILLE *    N/A     90  77  66 S10       29.83F HX 102
OTTUMWA        CLOUDY    91  75  59 S12       29.77F HX 101
WASHINGTON *   CLOUDY    82  77  83 CALM      29.78F HX  91
$$

ABBREVIATIONS USED IN REMARKS
   TC - TEMPERATURES IN CELSIUS
  WCI - WIND CHILL INDEX
   HX - HEAT INDEX
  VSB - VISIBILITY
$$





USA.gov is the U.S. government's official web portal to all federal, state and local government web resources and services.